Tracking 17856 objects as of 28-September-2016
HD Live streaming from Space Station
objects crossing your sky now

INTELSAT 901

Track INTELSAT 901 now!
INTELSAT 901 is classified as:


NORAD ID: 26824
Int'l Code: 2001-024A
Perigee: 35,784.6 km
Apogee: 35,805.6 km
Inclination: 0.0 °
Period: 1,436.2 minutes
Semi major axis: 42166 km
RCS: 15.9919 m2 (large)
Launch date: June 9, 2001
Source: International Telecommunications Satellite Organization (ITSO)
Launch site: FRENCH GUIANA (FRGUI)

72 C-band, 22 Ku-band, broadcasting, business services, direct-to-home TV broadcasting, telecommunications, VSAT networks; Atlantic Ocean region.
Your satellite tracking list
Your tracking list is empty





NASA's NSSDC Master Catalog

Two Line Element Set (TLE):
1 26824U 01024A   16271.69194596  .00000000  00000-0  10000-3 0  9999
2 26824   0.0222 307.6215 0002485 225.5989  64.7710  1.00266933 56009
Source of the keplerian elements: AFSPC

N2YO: 497